Home > Weather > Famagusta > Past weeks

Flag for Cyprus Past Weather in Famagusta, Northern Cyprus, Cyprus — Yesterday and Last 2 Weeks

Now
73 °F

Passing clouds.


Feels Like: 76 °F
Forecast: 61 / 77 °F
Wind: 5 mph from South

Location: Larnaca Airport

Current Time: May 27, 2016 at 5:18:01 PM

Latest Report: May 27, 2016 at 5:00 PM


Visibility: N/A

Pressure: 29.77 "Hg

Humidity: 65%

Dew Point: 61 °F

Location of FamagustaLocation

Past Weather in Famagusta — Graph

°F

Famagusta Temperature Yesterday

Maximum temperature yesterday: 81 °F (at 6:00 PM)
Minimum temperature yesterday: 64 °F (at 5:30 AM)
Average temperature yesterday: 72 °F

High & Low Weather Summary for the Past Weeks

 TemperatureHumidityPressure
High97 °F (May 15, 3:00 PM)100% (May 13, 12:00 AM)30.01 "Hg (May 13, 12:00 AM)
Low57 °F (May 25, 6:00 AM)23% (May 15, 3:00 PM)29.62 "Hg (May 26, 5:30 PM)
Average73 °F64%29.86 "Hg
* Reported May 12 4:00 PM — May 27 4:00 PM, Famagusta, Weather by CustomWeather, © 2016

Note: Actual official high and low records may vary slightly from our data, if they occured in-between our weather recording intervals... More about our weather records

Advertising

Famagusta Weather History for the Previous 24 Hours

Scroll right to see more
 ConditionsComfort  
Time TempWeatherWind HumidityBarometerVisibility
4:00 PM
Fri, May 27
72 °FPassing clouds.3 mph69%29.80 "HgN/A
3:30 PM70 °FPassing clouds.2 mph73%29.80 "HgN/A
3:00 PM70 °FSprinkles. Passing clouds.9 mph78%29.80 "HgN/A
2:30 PM70 °FThunderstorms. Passing clouds.15 mph88%29.77 "HgN/A
2:00 PM70 °FThundershowers. Passing clouds.16 mph78%29.77 "HgN/A
1:30 PM72 °FPassing clouds.14 mph73%29.77 "HgN/A
1:00 PM72 °FSprinkles. Passing clouds.9 mph69%29.77 "HgN/A
12:30 PM72 °FPassing clouds.10 mph65%29.77 "HgN/A
12:00 PM73 °FPassing clouds.12 mph69%29.77 "HgN/A
11:30 AM73 °FPassing clouds.10 mph65%29.77 "HgN/A
11:00 AM73 °FPassing clouds.8 mph65%29.77 "HgN/A
10:30 AM72 °FPassing clouds.8 mph69%29.77 "HgN/A
10:00 AM73 °FPassing clouds.7 mph65%29.77 "HgN/A
9:30 AM73 °FPassing clouds.6 mph65%29.77 "HgN/A
9:00 AM73 °FPassing clouds.6 mph65%29.77 "HgN/A
8:30 AM72 °FPassing clouds.5 mph65%29.77 "HgN/A
8:00 AM72 °FPassing clouds.2 mph65%29.77 "HgN/A
7:30 AM70 °FPassing clouds.3 mph60%29.74 "HgN/A
7:00 AM66 °FPassing clouds.2 mph64%29.74 "HgN/A
6:30 AM64 °FPassing clouds.3 mph68%29.74 "HgN/A
6:00 AM63 °FPassing clouds.3 mph77%29.74 "HgN/A
5:30 AM63 °FPassing clouds.2 mph77%29.74 "HgN/A
5:00 AM63 °FPassing clouds.6 mph77%29.74 "HgN/A
4:30 AM63 °FPassing clouds.5 mph73%29.71 "HgN/A
4:00 AM63 °FPassing clouds.6 mph77%29.71 "HgN/A
3:30 AM63 °FPassing clouds.6 mph83%29.71 "HgN/A
3:00 AM63 °FPassing clouds.6 mph77%29.71 "HgN/A
2:30 AM63 °FPassing clouds.5 mph77%29.71 "HgN/A
2:00 AM64 °FPassing clouds.5 mph78%29.71 "HgN/A
1:30 AM66 °FPassing clouds.6 mph73%29.71 "HgN/A
1:00 AM66 °FPassing clouds.5 mph73%29.71 "HgN/A
12:30 AM68 °FClear.10 mph69%29.71 "Hg10 mi
12:00 AM68 °FClear.13 mph69%29.74 "Hg10 mi
11:30 PM
Thu, May 26
68 °FClear.14 mph69%29.74 "Hg10 mi
11:00 PM68 °FClear.13 mph64%29.74 "Hg10 mi
10:30 PM68 °FPassing clouds.14 mph64%29.74 "HgN/A
10:00 PM70 °FPassing clouds.15 mph57%29.74 "HgN/A
9:30 PM70 °FPassing clouds.15 mph57%29.71 "HgN/A
9:00 PM72 °FPassing clouds.13 mph50%29.71 "HgN/A
8:30 PM72 °FPassing clouds.16 mph53%29.71 "HgN/A
8:00 PM73 °FPassing clouds.17 mph47%29.71 "HgN/A
7:30 PM73 °FPassing clouds.20 mph50%29.68 "HgN/A
7:00 PM77 °FPassing clouds.10 mph47%29.68 "HgN/A
6:30 PM81 °FPassing clouds.10 mph34%29.65 "HgN/A
6:00 PM81 °FPassing clouds.18 mph37%29.62 "HgN/A
5:30 PM75 °FPassing clouds.20 mph54%29.62 "HgN/A
5:00 PM77 °FPassing clouds.20 mph47%29.65 "HgN/A
Weather by CustomWeather, © 2016

See weather overviewHow to use our weather pages